Temperature
22 19 18 19 19 20 20 20 19 20 20 20 19 18 18 19 18 18 18 18 18 18 18 18 17 17 17 17 17 17 16 16 16 16 16 16 15 15 15 15 15 15 15 15
19 19 20 21 21 21 20 20 19 20 21 20 18 18 18 18 18 18 18 18 18 18 18 17 17 17 17 17 17 17 16 16 16 16 16 15 15 15 15 15 15 15 15 15
19 20 22 22 21 21 20 20 20 20 20 19 19 18 18 18 18 18 18 18 18 18 18 18 17 17 17 17 16 16 16 16 16 16 16 15 15 15 15 15 15 15 15 14
20 21 22 21 21 21 20 21 21 20 19 17 19 17 17 17 17 17 17 18 18 18 18 18 17 17 17 17 16 16 16 16 16 16 15 15 15 15 15 15 15 15 14 14
20 21 21 21 21 21 20 21 21 20 19 18 18 17 16 17 17 17 17 17 18 18 18 18 17 17 17 16 16 16 16 16 16 16 15 15 15 15 15 15 15 15 14 14
20 21 22 21 22 22 21 20 19 17 17 17 17 17 17 16 17 17 17 18 18 18 18 18 17 17 17 16 16 16 16 16 16 15 15 15 15 15 15 15 14 14 14 14
20 21 21 22 21 21 19 17 16 17 16 16 17 17 17 17 18 18 17 18 18 18 18 17 17 17 16 16 16 16 16 16 16 15 15 15 15 15 15 14 14 14 14 14
18 18 20 21 20 20 19 17 16 16 16 16 17 17 17 18 18 18 18 18 18 18 18 17 17 17 17 16 16 16 16 16 16 15 15 15 15 15 14 14 14 14 14 14
17 18 20 21 21 20 19 17 17 16 16 16 16 17 18 18 17 17 17 17 17 17 17 17 17 17 16 16 16 16 16 16 16 15 15 15 15 15 14 14 14 14 14 14
18 18 19 20 21 20 19 18 15 16 16 16 16 16 16 17 16 16 16 16 17 17 17 17 17 17 16 16 16 16 16 16 15 15 15 15 15 14 14 14 14 14 14 14
18 17 18 19 19 19 19 18 16 15 15 15 15 16 17 16 16 16 16 17 17 17 17 17 17 16 16 16 16 16 16 16 15 15 15 15 15 14 14 14 14 14 14 13
17 15 16 17 18 19 18 18 16 16 15 14 14 15 17 16 16 16 16 17 17 17 17 17 16 16 16 16 16 16 15 15 15 15 15 15 15 14 14 14 14 14 13 13
17 15 15 16 17 18 18 18 17 15 14 13 14 15 16 16 16 16 16 16 17 17 16 16 16 16 16 16 15 15 15 15 15 15 15 14 14 14 14 14 14 14 13 13
16 15 15 16 16 16 17 18 18 16 14 14 14 15 16 16 15 15 16 16 16 16 16 16 16 15 15 15 15 15 15 15 15 15 14 14 14 14 14 14 14 13 13 13
15 15 16 16 16 17 17 17 17 16 15 15 15 15 15 15 15 15 15 15 15 15 15 15 15 15 15 15 15 15 15 15 15 14 14 14 14 14 14 13 13 13 13 13
14 15 15 16 17 17 17 17 16 16 16 15 15 15 15 15 15 15 15 15 15 15 15 15 15 15 15 15 15 15 15 15 14 14 14 14 14 13 13 13 13 13 13 12
13 14 14 14 15 16 15 16 16 16 15 15 15 15 14 14 14 14 15 14 14 15 15 15 15 15 15 14 14 14 14 14 14 14 14 13 13 13 13 13 13 12 12 12
13 13 12 13 15 15 15 15 15 15 15 15 14 14 14 14 15 15 15 15 14 14 15 15 15 14 14 14 14 14 14 14 14 13 13 13 13 13 13 12 12 12 12 12
13 13 12 12 13 14 15 15 15 15 14 14 14 14 14 14 14 14 15 15 15 14 14 14 14 14 14 14 14 13 13 13 13 13 13 13 13 13 12 12 12 12 12 11
12 12 11 11 13 13 14 15 16 15 13 14 13 13 13 13 11 12 14 14 14 14 14 14 14 14 13 13 13 13 13 13 13 13 13 12 12 12 12 12 12 11 11 11
12 12 11 11 12 12 13 15 15 14 13 14 14 14 13 12 13 14 14 14 14 14 13 13 13 13 13 13 13 13 13 13 13 12 12 12 12 12 12 11 11 11 11 11
11 11 11 10 11 12 13 14 13 13 14 14 14 14 14 14 13 13 13 13 13 13 13 13 13 12 12 12 12 12 12 12 12 12 12 12 11 11 11 11 11 10 10 10
10 11 10 10 11 12 13 13 14 14 14 14 14 14 14 13 13 13 12 12 12 12 12 12 12 12 12 12 12 12 12 12 12 12 11 11 11 11 10 10 10 10 10 10
11 11 10 10 11 11 12 13 13 13 13 13 13 13 13 12 12 12 12 12 12 12 11 11 11 11 11 11 11 11 11 11 11 11 11 11 10 10 10 10 10 10 9 9
10 10 10 10 10 11 11 12 12 12 12 12 12 12 12 12 11 11 11 11 11 11 11 11 11 11 11 11 11 11 11 11 11 11 10 10 10 10 10 9 9 9 9 9
9 9 9 9 10 10 11 11 11 11 11 11 11 11 11 11 11 11 11 10 10 10 10 10 10 10 10 10 10 10 10 10 10 10 10 10 10 9 9 9 9 9 8 8
Wind_Speed
1 3 3 7 8 6 4 3 4 5 4 4 5 4 5 5 7 8 8 8 8 8 6 5 5 6 5 5 6 6 6 5 5 4 3 3 2 1 2 3 4 5 6 6
3 3 8 6 5 4 2 2 3 3 2 4 4 5 4 5 8 10 11 10 10 7 5 5 6 5 6 5 6 7 7 6 5 4 3 3 3 2 2 2 4 5 6 5
6 6 4 4 2 3 3 4 4 4 0 1 2 4 4 4 3 5 7 9 9 10 10 8 7 6 6 6 6 7 6 6 5 5 4 4 4 3 3 2 2 2 4 5
4 5 2 2 3 4 4 5 5 3 2 3 3 3 6 5 3 5 6 6 8 9 9 9 9 8 8 7 6 6 6 6 5 6 6 6 4 3 2 1 1 1 3 4
4 3 3 4 5 4 6 4 3 2 3 1 1 3 6 1 3 7 8 8 9 9 10 10 10 10 9 8 7 6 7 6 5 6 7 6 4 2 1 1 2 1 1 2
4 3 4 5 4 3 2 3 5 4 3 2 4 4 5 4 7 7 8 8 9 9 8 9 9 8 7 7 6 6 7 6 5 6 6 6 6 4 3 2 2 1 0 0
3 3 2 1 1 2 4 5 3 3 2 5 2 3 5 5 5 7 8 8 8 8 8 8 9 9 9 9 8 7 7 6 6 6 6 5 6 6 5 4 3 2 1 1
1 4 4 1 4 4 3 7 6 4 4 4 2 3 4 3 1 2 4 5 6 6 8 9 10 10 9 10 9 8 8 7 7 7 6 5 5 4 4 4 4 3 3 2
4 5 3 2 1 5 3 4 6 5 2 2 3 3 4 4 3 2 3 4 3 5 7 8 9 9 9 9 10 10 9 8 7 7 6 5 5 4 4 4 3 3 2 2
5 3 4 2 2 1 5 6 5 4 2 3 3 3 4 4 2 1 3 4 3 3 4 5 6 8 9 9 9 8 8 8 8 7 7 6 5 5 4 4 3 3 3 2
4 4 3 2 2 4 1 2 3 4 5 4 3 5 4 7 5 5 5 4 4 4 5 5 5 5 6 7 8 7 7 7 7 7 6 6 5 5 5 4 4 3 3 3
2 4 2 6 6 4 5 5 5 4 3 4 3 6 5 4 5 5 4 3 3 3 4 4 4 3 3 5 6 7 6 7 7 6 6 6 6 5 5 4 4 4 3 3
3 5 2 5 6 2 1 2 4 5 4 4 4 5 3 1 1 2 2 2 2 3 3 3 3 3 3 5 6 6 6 7 6 6 6 6 6 6 5 5 4 4 4 3
4 3 5 7 6 3 3 3 3 5 4 4 6 6 4 1 2 2 3 3 3 3 3 3 3 2 2 3 4 6 6 6 6 5 6 6 6 6 6 5 4 4 4 4
4 2 3 5 5 3 2 4 3 4 6 7 7 6 6 5 5 5 3 3 3 2 3 3 3 2 2 1 2 4 5 5 6 6 6 6 6 5 5 4 4 4 3 4
3 2 0 2 3 1 2 3 4 4 4 4 3 4 4 3 1 2 2 3 3 3 3 3 3 2 2 2 2 3 4 5 6 7 7 6 5 5 5 4 4 4 3 3
1 2 1 3 4 2 3 3 2 2 2 4 5 5 1 1 1 3 3 3 3 3 3 4 4 4 4 4 3 4 4 4 5 6 5 5 5 4 4 4 4 4 4 4
4 3 2 1 1 3 5 2 2 3 0 1 2 1 1 3 2 2 3 4 3 3 3 3 3 3 2 2 2 2 3 4 5 5 5 5 5 5 4 4 4 4 3 4
6 5 3 2 2 4 4 3 1 2 2 1 1 0 1 2 4 3 1 1 2 3 2 3 3 3 2 1 2 2 3 4 4 5 5 5 6 5 4 4 5 4 3 3
4 5 4 2 3 5 5 5 2 3 1 4 1 2 1 3 1 4 3 1 0 0 1 1 1 2 2 2 3 3 3 4 4 5 5 5 5 6 6 6 5 3 3 3
2 2 3 3 3 5 5 4 3 2 5 4 2 2 2 2 4 4 2 1 1 1 1 1 2 1 1 1 3 3 3 4 5 4 4 4 4 5 6 5 4 3 3 3
3 3 3 4 3 6 4 2 2 4 2 1 0 0 0 1 1 1 1 1 1 1 1 1 1 0 1 1 2 2 4 4 3 3 4 4 4 4 4 4 3 4 4 3
3 4 4 5 5 3 1 2 1 1 1 1 1 1 1 1 1 2 1 1 1 0 1 1 1 0 2 1 2 2 3 3 3 3 3 3 3 3 4 5 4 3 3 4
3 1 2 1 2 1 2 3 3 2 1 1 1 1 2 2 1 1 1 2 1 1 1 1 1 0 1 2 2 2 2 2 3 3 3 3 3 3 3 4 4 4 4 5
3 0 1 2 3 2 3 3 2 3 4 3 3 2 2 2 1 1 1 2 2 2 2 1 1 1 3 3 2 2 1 2 2 2 3 3 3 3 3 3 4 5 6 7
2 3 4 4 4 3 4 3 2 3 3 2 3 4 3 2 1 1 1 1 1 2 2 2 2 2 3 3 3 3 2 3 3 2 2 2 3 3 3 3 2 4 5 7
Wind_Direction
63 92 202 217 202 199 207 199 226 236 205 159 190 213 226 198 176 177 179 180 180 185 186 165 158 143 137 140 137 131 132 134 122 112 108 102 98 82 72 83 97 100 100 105
52 236 232 221 206 184 191 206 250 275 202 175 200 241 239 207 195 189 184 185 186 181 169 165 158 150 145 153 151 142 143 142 139 140 141 137 131 112 96 78 79 91 97 109
191 235 224 181 189 187 221 212 230 233 301 91 127 304 281 259 215 193 193 190 186 180 178 174 167 166 156 155 161 157 153 147 141 134 113 92 70 57 48 53 56 58 94 103
225 246 185 173 211 190 235 231 218 200 135 244 168 246 275 240 212 203 200 198 194 185 178 175 171 170 171 169 167 163 154 147 142 134 129 128 128 137 178 169 128 68 97 104
246 217 192 209 223 195 220 232 202 191 173 244 224 180 277 233 213 221 209 200 193 183 179 180 179 177 173 164 164 161 152 150 149 144 144 141 139 156 149 112 98 87 84 105
236 227 195 209 210 183 179 41 32 47 77 271 236 180 265 231 215 217 214 203 194 186 179 181 182 170 163 158 163 158 155 157 156 153 151 152 153 150 139 136 133 125 104 93
309 303 279 155 93 11 81 80 32 1 0 258 258 172 247 253 215 199 198 200 194 185 179 179 178 173 171 170 176 167 165 168 166 162 165 166 162 159 164 168 169 159 153 210
183 278 273 225 181 194 182 145 161 199 229 278 318 219 259 302 199 163 166 174 176 180 181 183 184 181 182 181 177 174 175 179 175 171 175 173 166 164 173 177 177 179 185 203
173 251 282 259 187 151 149 179 177 154 220 261 284 288 315 11 37 75 112 116 159 178 178 185 184 181 184 184 181 179 180 181 179 178 174 176 180 175 176 179 176 180 188 190
152 223 276 286 41 12 165 158 100 127 169 260 284 256 246 251 235 165 143 155 174 171 175 175 183 190 189 186 186 181 179 182 184 182 180 182 180 176 172 163 168 175 184 178
138 161 281 336 204 227 185 140 126 138 156 166 248 266 236 213 205 190 190 191 185 183 187 192 192 195 192 184 177 177 182 183 187 185 182 173 174 173 165 166 174 175 174 173
124 130 222 257 259 215 175 184 151 159 213 175 189 264 293 198 194 182 187 193 194 189 187 184 183 178 185 184 183 179 184 185 191 186 178 176 177 169 169 174 179 172 169 172
112 115 96 327 324 342 202 197 167 149 142 169 188 256 319 127 147 183 171 179 184 163 151 149 158 170 185 192 189 188 186 188 187 175 174 176 175 174 179 184 185 176 169 167
99 121 172 204 228 231 258 261 201 146 171 213 218 233 280 216 188 206 175 163 156 145 139 135 141 167 181 192 200 197 196 190 180 169 170 178 187 186 187 186 186 182 172 166
89 144 212 230 222 197 228 250 226 196 194 198 224 219 237 222 208 203 184 159 147 144 144 150 159 169 177 181 212 202 200 193 178 167 170 183 187 182 180 179 179 177 170 172
75 139 342 282 250 219 273 268 235 224 210 204 212 250 252 230 146 149 182 172 166 177 179 174 170 168 182 192 209 201 196 195 175 171 179 180 173 171 177 184 181 172 170 176
110 128 103 273 293 16 287 264 215 199 211 183 213 237 247 96 156 192 193 188 197 204 199 195 196 194 199 204 201 200 199 178 169 176 179 174 172 175 184 181 173 179 183 176
149 129 143 233 19 227 246 269 158 151 68 135 157 226 197 184 214 214 182 169 199 213 207 214 212 208 213 205 209 210 185 167 173 179 176 172 170 177 179 168 175 188 183 185
160 148 134 145 213 267 291 295 205 169 258 326 141 115 44 98 62 358 299 165 186 197 205 209 206 189 184 196 194 169 167 167 172 184 185 185 179 177 174 179 189 189 179 187
90 109 127 138 186 234 255 288 303 102 254 301 206 175 143 83 82 264 277 290 2 11 175 183 176 142 141 183 170 155 173 169 184 198 199 196 187 179 183 192 194 189 184 189
45 71 139 169 214 258 265 293 55 133 249 282 227 200 169 195 222 231 238 207 164 125 86 112 120 135 191 190 151 159 177 195 204 197 189 189 192 189 188 189 187 177 178 166
177 166 177 157 192 256 295 77 147 229 272 308 280 178 143 297 4 120 141 134 103 71 60 78 99 35 318 160 150 181 208 216 199 181 179 186 191 191 182 173 180 179 173 169
186 191 186 184 206 263 307 158 220 133 81 2 35 342 87 87 32 18 9 2 358 41 32 30 101 359 345 324 174 203 225 206 177 170 182 186 189 190 181 180 183 183 183 188
301 56 122 213 267 318 11 36 35 46 68 26 56 72 90 88 76 24 4 350 344 326 306 336 65 78 314 305 262 223 216 184 159 174 191 188 185 197 197 196 192 190 197 203
248 162 155 257 279 348 355 355 9 19 35 41 35 40 78 89 68 32 354 340 322 316 315 325 303 261 272 284 284 273 209 163 165 187 193 197 196 196 208 213 212 208 215 212
223 184 184 225 232 204 255 288 2 38 33 38 32 18 22 58 49 13 336 315 312 315 320 315 293 270 277 279 276 275 229 179 169 181 198 198 196 198 207 211 250 251 235 234
Height
1497 1503 1507 1505 1503 1504 1506 1509 1512 1508 1502 1506 1509 1510 1508 1507 1508 1509 1510 1511 1513 1514 1515 1517 1518 1519 1520 1521 1523 1524 1525 1526 1527 1528 1528 1529 1529 1530 1530 1530 1530 1530 1530 1530
1503 1504 1497 1496 1498 1501 1504 1509 1510 1505 1501 1505 1510 1510 1506 1505 1505 1506 1507 1509 1510 1512 1514 1515 1517 1518 1519 1520 1522 1523 1524 1526 1526 1527 1528 1529 1529 1530 1530 1531 1531 1531 1530 1530
1502 1498 1492 1495 1498 1501 1504 1507 1507 1507 1503 1504 1509 1514 1509 1505 1504 1505 1506 1507 1508 1509 1511 1513 1514 1516 1517 1519 1521 1522 1523 1525 1526 1527 1528 1529 1530 1530 1530 1530 1531 1531 1531 1530
1497 1492 1492 1495 1497 1498 1506 1498 1499 1502 1510 1517 1512 1526 1512 1506 1505 1504 1505 1505 1506 1507 1509 1510 1512 1514 1516 1517 1519 1521 1522 1524 1525 1526 1527 1528 1528 1529 1529 1530 1530 1530 1531 1531
1496 1492 1493 1496 1494 1494 1497 1493 1496 1500 1508 1515 1514 1522 1517 1507 1507 1504 1502 1502 1503 1505 1506 1508 1510 1511 1514 1516 1518 1520 1521 1523 1524 1525 1526 1527 1528 1528 1529 1530 1530 1530 1530 1530
1491 1488 1489 1490 1489 1490 1491 1496 1501 1507 1514 1524 1515 1521 1518 1509 1502 1499 1498 1499 1500 1502 1504 1506 1508 1510 1512 1515 1517 1518 1519 1521 1523 1524 1525 1526 1527 1527 1528 1528 1529 1529 1529 1530
1496 1491 1488 1487 1492 1492 1495 1511 1525 1527 1532 1528 1512 1515 1513 1497 1494 1494 1494 1496 1497 1500 1502 1504 1506 1508 1510 1512 1514 1516 1518 1519 1521 1522 1524 1525 1526 1526 1527 1527 1527 1528 1528 1529
1506 1505 1491 1488 1491 1496 1498 1507 1526 1534 1533 1525 1513 1515 1507 1495 1492 1491 1492 1493 1496 1498 1500 1502 1504 1506 1508 1510 1512 1514 1516 1517 1519 1521 1522 1523 1524 1525 1525 1526 1526 1527 1527 1527
1505 1504 1489 1486 1486 1490 1498 1505 1506 1519 1520 1525 1520 1510 1501 1495 1493 1492 1493 1494 1495 1496 1498 1500 1502 1504 1506 1508 1509 1512 1514 1515 1517 1518 1520 1521 1522 1523 1524 1524 1525 1525 1526 1526
1494 1502 1492 1487 1487 1488 1491 1497 1511 1518 1528 1531 1522 1516 1513 1501 1497 1495 1494 1494 1495 1496 1497 1498 1500 1502 1504 1505 1507 1510 1512 1513 1515 1516 1518 1519 1520 1521 1522 1523 1523 1524 1524 1525
1490 1500 1499 1493 1494 1495 1495 1498 1504 1515 1519 1529 1530 1521 1498 1496 1495 1495 1494 1494 1494 1495 1496 1497 1498 1500 1502 1504 1505 1507 1510 1511 1513 1514 1515 1517 1518 1519 1520 1521 1521 1522 1522 1523
1489 1499 1505 1498 1490 1487 1491 1494 1502 1515 1518 1521 1526 1519 1492 1492 1492 1492 1493 1493 1493 1494 1495 1496 1497 1498 1499 1501 1503 1505 1507 1508 1510 1512 1513 1514 1515 1516 1517 1518 1519 1519 1520 1521
1489 1500 1511 1508 1502 1493 1492 1491 1495 1503 1513 1520 1524 1515 1492 1492 1492 1492 1492 1492 1492 1493 1493 1494 1495 1496 1498 1499 1500 1502 1504 1505 1507 1509 1510 1511 1512 1513 1514 1516 1516 1517 1517 1518
1485 1497 1505 1510 1505 1498 1496 1492 1492 1500 1512 1514 1511 1505 1495 1493 1492 1491 1491 1491 1491 1491 1492 1492 1493 1494 1496 1497 1498 1499 1501 1502 1504 1505 1507 1508 1509 1510 1512 1513 1513 1514 1515 1515
1487 1497 1496 1495 1491 1492 1493 1492 1492 1495 1499 1505 1501 1499 1494 1491 1490 1489 1489 1490 1490 1490 1491 1491 1491 1492 1493 1494 1495 1497 1498 1499 1501 1502 1503 1504 1506 1507 1509 1510 1510 1511 1512 1513
1490 1496 1495 1495 1489 1489 1492 1490 1490 1491 1492 1494 1495 1495 1489 1488 1488 1489 1489 1489 1488 1488 1489 1489 1490 1490 1491 1491 1492 1493 1495 1496 1498 1499 1500 1501 1503 1504 1505 1506 1507 1508 1509 1510
1493 1497 1501 1503 1493 1492 1498 1491 1490 1490 1489 1490 1494 1492 1488 1488 1488 1487 1487 1487 1487 1487 1487 1487 1487 1487 1488 1489 1490 1490 1491 1493 1494 1495 1497 1498 1500 1501 1502 1503 1504 1504 1505 1506
1493 1497 1503 1504 1500 1506 1497 1486 1486 1488 1488 1487 1488 1487 1486 1486 1486 1486 1485 1485 1485 1485 1485 1485 1485 1485 1485 1486 1487 1488 1489 1490 1491 1492 1493 1495 1496 1497 1498 1499 1500 1501 1502 1503
1486 1494 1503 1507 1507 1502 1492 1486 1486 1488 1489 1487 1487 1486 1485 1484 1485 1485 1485 1485 1484 1483 1483 1483 1483 1483 1484 1484 1485 1486 1487 1487 1488 1489 1490 1491 1492 1493 1495 1495 1496 1497 1498 1499
1487 1490 1501 1506 1506 1507 1495 1484 1481 1485 1491 1486 1485 1485 1485 1484 1489 1487 1484 1483 1483 1482 1482 1482 1482 1482 1483 1483 1484 1484 1485 1485 1485 1486 1487 1488 1489 1490 1491 1492 1492 1493 1494 1495
1494 1497 1501 1505 1506 1500 1488 1483 1483 1495 1493 1485 1483 1483 1483 1483 1484 1483 1482 1482 1481 1481 1481 1480 1480 1481 1481 1481 1482 1482 1482 1482 1483 1484 1484 1485 1486 1487 1487 1488 1489 1489 1490 1491
1496 1499 1502 1505 1507 1503 1485 1484 1488 1488 1484 1483 1483 1482 1482 1481 1481 1480 1480 1480 1480 1479 1479 1478 1478 1478 1479 1479 1479 1478 1479 1480 1480 1481 1481 1482 1482 1483 1484 1485 1485 1486 1486 1487
1493 1493 1494 1496 1497 1489 1485 1485 1485 1484 1483 1483 1482 1482 1482 1481 1480 1480 1479 1479 1478 1478 1478 1477 1477 1477 1477 1477 1477 1476 1477 1477 1478 1478 1478 1478 1479 1480 1481 1481 1481 1482 1483 1483
1489 1488 1490 1492 1489 1487 1486 1484 1484 1484 1483 1483 1482 1482 1481 1480 1480 1479 1479 1478 1477 1477 1476 1476 1475 1475 1475 1475 1475 1475 1475 1475 1475 1475 1475 1475 1476 1476 1477 1478 1478 1478 1479 1479
1489 1488 1490 1490 1488 1486 1485 1485 1484 1483 1482 1482 1481 1481 1480 1479 1479 1478 1478 1477 1476 1475 1475 1474 1474 1473 1473 1473 1472 1472 1472 1472 1472 1472 1472 1472 1472 1473 1473 1474 1474 1474 1475 1475
1487 1488 1489 1489 1486 1486 1485 1484 1484 1482 1482 1481 1480 1479 1479 1479 1478 1477 1477 1476 1475 1474 1473 1472 1472 1471 1471 1470 1470 1470 1470 1470 1469 1469 1469 1469 1469 1469 1470 1470 1470 1470 1471 1472